Regional Weather Roundup
Issued by NWS

Home | Current Version | Previous Version | Graphics & Text | Print | Product List | Glossary Off
Versions: 1 2 3 4 5 6 7 8 9 10 11 12 13 14 15 16 17 18 19 20 21 22 23 24 25 26 27 28 29 30 31 32 33 34 35 36 37 38 39 40 41 42 43 44 45 46 47 48 49 50

000
ASUS43 KMPX 291710
RWRMN
WEATHER ROUNDUP FOR MINNESOTA
NATIONAL WEATHER SERVICE TWIN CITIES/CHANHASSEN MN
1200 PM CDT THU JUN 29 2017


NOTE: "FAIR" INDICATES FEW OR NO CLOUDS BELOW 12,000 FEET WITH NO
SIGNIFICANT WEATHER AND/OR OBSTRUCTIONS TO VISIBILITY. N/A MEANS
CURRENT SKY AND/OR WEATHER CONDITIONS ARE NOT AVAILABLE.

MNZ060>063-068>070-291800-
   Twin Cities Metro

CITY           SKY/WX    TMP DP  RH WIND       PRES   REMARKS
TWIN CITIES    CLOUDY    70  59  68 NW8       29.76F
ST PAUL        CLOUDY    68  61  78 W13       29.76S
CRYSTAL        CLOUDY    68  57  68 W12       29.75F
BLAINE         CLOUDY    70  61  73 NW12      29.76F
LAKEVILLE      CLOUDY    66  61  82 W9        29.78R
EDEN PRAIRIE   CLOUDY    70  59  68 NW7       29.76S
SOUTH ST PAUL  CLOUDY    69  58  68 NW8       29.76S
LAKE ELMO      CLOUDY    68  61  77 W8        29.76F
$$
MNZ001>005-007-008-013>017-022>024-027-028-291800-
   Northwest Minnesota

CITY           SKY/WX    TMP DP  RH WIND       PRES   REMARKS
BEMIDJI        CLOUDY    71  59  66 NW10G18   29.78R
HALLOCK        MOSUNNY   70  63  78 CALM      29.80R
ROSEAU         MOSUNNY   72  63  73 NW5       29.79R
WARROAD        SUNNY     70  61  73 NE3       29.79S
THIEF RVR FALL CLOUDY    68  61  78 NW6       29.82R
CROOKSTON      CLOUDY    66  63  88 NW5       29.82R
FOSSTON        MOSUNNY   68  63  83 NW3       29.82R
DETROIT LAKES  PTSUNNY   68  59  73 NW9       29.83R
MOORHEAD       PTSUNNY   66  61  82 NW6       29.83R
PARK RAPIDS    PTSUNNY   71  56  58 NW9       29.79R
MAHNOMEN       FAIR      68  59  73 N5        29.81R
$$
MNZ006-009>011-018-025>026-291800-
   North Central Minnesota

CITY           SKY/WX    TMP DP  RH WIND       PRES   REMARKS
BAUDETTE       CLOUDY    70  62  76 NW9       29.76F
FLAG ISLAND    MOSUNNY   68  57  68 N6        29.78S
INTL FALLS     CLOUDY    63  57  81 N8        29.75S
WASKISH        PTSUNNY   72  61  68 NW7       29.77R
BIG FORK       CLOUDY    66  59  77 NW3       29.76R
LONGVILLE      CLOUDY    66  59  77 W6        29.77R
GRAND RAPIDS   CLOUDY    66  60  81 NW10      29.77R
CRANE LAKE     CLOUDY    61  59  94 N5        29.75R
ORR            CLOUDY    61  55  82 NW5       29.72R
COOK           CLOUDY    63  57  82 N5        29.74R
WALKER         PTSUNNY   69  59  70 N9        29.76R
$$
MNZ012-019>021-037-291800-
   Northeast Minnesota

CITY           SKY/WX    TMP DP  RH WIND       PRES   REMARKS
DULUTH         LGT RAIN  62  60  93 NW9       29.72R FOG
ELY            RAIN      59  57  94 CALM      29.72R
HIBBING        CLOUDY    60  59  96 NW13      29.74R
EVELETH        PTSUNNY   60  56  88 N6        29.74R
DULUTH HARBOR  CLOUDY    64  61  88 W14       29.72R
TWO HARBORS    CLOUDY    66  61  82 NW3       29.68R
SILVER BAY     CLOUDY    63  61  94 CALM      29.68R FOG
GRAND MARAIS     N/A     53  51  93 W5        29.66R
G MARAIS ARPRT CLOUDY    57  54  88 N9        29.70R
$$
MNZ029>031-032-039>041-046>048-054>057-064-291800-
   West Central Minnesota

CITY           SKY/WX    TMP DP  RH WIND       PRES   REMARKS
FERGUS FALLS   CLOUDY    66  59  77 NW7       29.80S
WHEATON        CLOUDY    64  57  77 NW5       29.84S
MORRIS         CLOUDY    68  59  73 NW9       29.80F
ALEXANDRIA     CLOUDY    68  60  75 W7        29.82S
ELBOW LAKE     CLOUDY    65  60  82 NW6       29.83R
WADENA         MOSUNNY   70  59  68 NW8       29.79R
GLENWOOD       MOSUNNY   70  61  73 W7        29.81F
APPLETON       CLOUDY    68  59  73 NW5       29.82R
BENSON         CLOUDY    70  59  68 NW6       29.83R
ORTONVILLE     CLOUDY    68  57  68 CALM      29.82S
MADISON        CLOUDY    72  61  68 CALM      29.81S
WILLMAR        CLOUDY    68  61  77 NW7       29.82S
$$
MNZ033>034-036-042>043-049>051-058-059-291800-
   Central Minnesota

CITY           SKY/WX    TMP DP  RH WIND       PRES   REMARKS
ST CLOUD       CLOUDY    68  59  73 NW8       29.78R
SAUK CENTRE    CLOUDY    68  60  74 W7        29.81R
PAYNESVILLE    CLOUDY    67  64  87 W7        29.81S
AITKIN         CLOUDY    66  57  72 NW6       29.75R
PINE RIVER     PTSUNNY   70  61  73 MISG      29.80R
BRAINERD       CLOUDY    68  59  73 N6        29.76S
STAPLES        PTSUNNY   72  57  60 W10       29.79R
LONG PRAIRIE   PTSUNNY   66  59  77 SW6       29.81R
LITTLE FALLS   PTSUNNY   68  55  64 W10       29.79R
LITCHFIELD     CLOUDY    68  63  83 NW5       29.80F
BUFFALO        CLOUDY    67  58  73 W9        29.80R
MAPLE LAKE     CLOUDY    68  61  79 W8        29.80S
HUTCHINSON     CLOUDY    69  62  78 W8        29.80F
$$
MNZ037-044-045-052-053-291800-
   East Central Minnesota

CITY           SKY/WX    TMP DP  RH WIND       PRES   REMARKS
PRINCETON      CLOUDY    70  61  73 NW7       29.77F
MORA           CLOUDY    64  57  77 NW8       29.77F
CAMBRIDGE      CLOUDY    70  57  64 W10       29.74F
RUSH CITY      CLOUDY    66  59  77 W6        29.75F
MOOSE LAKE     CLOUDY    64  59  82 NW8       29.72F
HINCKLEY       PTSUNNY   70  61  73 W7        29.74F
CLOQUET        CLOUDY    63  57  82 NW9       29.73S
MCGREGOR       PTSUNNY   66  61  82 NW9       29.75S
$$
MNZ071>073-080-081-089-090-097-098-291800-
   Southwest Minnesota

CITY           SKY/WX    TMP DP  RH WIND       PRES   REMARKS
MONTEVIDEO     CLOUDY    70  63  78 CALM      29.82S
GRANITE FALLS  CLOUDY    69  61  76 W3        29.83F
CANBY          MOSUNNY   72  59  62 CALM      29.83S
MARSHALL       CLOUDY    69  59  70 N9        29.81F
REDWOOD FALLS  CLOUDY    66  59  78 W12       29.81S
OLIVIA         CLOUDY    66  61  82 W8        29.81R
PIPESTONE      PTSUNNY   75  55  50 NE12G17   29.80F
WINDOM         CLOUDY    72  63  73 N13       29.79F
WORTHINGTON    CLOUDY    73  62  68 N8        29.81S
JACKSON        CLOUDY    72  63  73 CALM      29.80S
TRACY          CLOUDY    70  62  77 NW7       29.81F
SLAYTON        PTSUNNY   71  62  74 NW10      29.82S
$$
MNZ065>067-074>077-082>085-091>093-291800-
   South Central Minnesota

CITY           SKY/WX    TMP DP  RH WIND       PRES   REMARKS
MANKATO        CLOUDY    68  61  78 NW13      29.80R
NEW ULM        CLOUDY    64  61  88 NW9       29.80F
ST JAMES       CLOUDY    68  63  83 NW9       29.80S
FAIRMONT       CLOUDY    72  64  76 N9        29.80R
GLENCOE        CLOUDY    68  63  84 W8        29.78F
FARIBAULT      CLOUDY    70  61  73 W10       29.79R
OWATONNA       MOSUNNY   73  63  68 NW13      29.78R
WASECA         CLOUDY    72  63  73 NW10      29.80R
ALBERT LEA     MOSUNNY   73  63  68 SW3       29.79R
$$
MNZ078>079-086>088-094>096-291800-
   Southeast Minnesota

CITY           SKY/WX    TMP DP  RH WIND       PRES   REMARKS
ROCHESTER      CLOUDY    74  64  71 NW7       29.79R
RED WING       CLOUDY    72  57  60 W8G16     29.75R
STANTON        CLOUDY    69  60  73 NW9       29.77R
DODGE CENTER   MOSUNNY   72  63  73 NW10      29.79R
WINONA         MOSUNNY   73  63  68 NW9       29.75S
AUSTIN         PTSUNNY   73  63  68 CALM      29.79R
PRESTON        CLOUDY    73  61  68 W5        29.80R
$$
ABBREVIATIONS USED IN REMARKS
   TC - TEMPERATURES IN CELSIUS
  WCI - WIND CHILL INDEX
   HX - HEAT INDEX
  VSB - VISIBILITY
$$




USA.gov is the U.S. government's official web portal to all federal, state and local government web resources and services.